AIC228 VOMM-VOBL

Flight info

Callsign AIC228
Flight time N/A
Altitude 22000
Route MMV W117 XIVIL XIVIL7E
Aircraft A319/M-SDE3FGHIRWY/LB1

Departure

Time 2026-04-23 14:22
Airport Chennai International Airport (VOMM)

Arrival

Time N/A
Airport Kempegowda International Airport Bengaluru (VOBL)
Time Latitude Longitude Altitude Speed Heading
2026-04-23 14:05 12.98376 80.15921 47 ft 0 kts 335°
2026-04-23 14:13 12.98373 80.15923 47 ft 2 kts 336°
2026-04-23 14:13 12.98360 80.15928 48 ft 2 kts 335°
2026-04-23 14:13 12.98347 80.15934 48 ft 2 kts 336°
2026-04-23 14:14 12.98339 80.15938 48 ft 2 kts 335°
2026-04-23 14:14 12.98326 80.15946 48 ft 2 kts 315°
2026-04-23 14:14 12.98316 80.15959 48 ft 2 kts 297°
2026-04-23 14:14 12.98311 80.15972 48 ft 2 kts 284°
2026-04-23 14:15 12.98309 80.15988 49 ft 2 kts 268°
2026-04-23 14:15 12.98311 80.16003 49 ft 1 kts 252°
2026-04-23 14:15 12.98314 80.16011 49 ft 0 kts 248°
2026-04-23 14:15 12.98314 80.16012 49 ft 0 kts 248°
2026-04-23 14:17 12.98312 80.16007 49 ft 4 kts 247°
2026-04-23 14:18 12.98295 80.15962 49 ft 7 kts 249°
2026-04-23 14:18 12.98290 80.15904 48 ft 9 kts 283°
2026-04-23 14:18 12.98311 80.15836 48 ft 11 kts 288°
2026-04-23 14:18 12.98334 80.15752 48 ft 15 kts 286°
2026-04-23 14:19 12.98363 80.15646 47 ft 17 kts 286°
2026-04-23 14:19 12.98398 80.15524 47 ft 14 kts 285°
2026-04-23 14:19 12.98441 80.15462 45 ft 11 kts 348°
2026-04-23 14:19 12.98493 80.15505 45 ft 12 kts 68°
2026-04-23 14:20 12.98549 80.15642 44 ft 47 kts 65°
2026-04-23 14:20 12.98728 80.16119 43 ft 108 kts 66°
2026-04-23 14:20 12.99011 80.16864 70 ft 149 kts 66°
2026-04-23 14:20 12.99013 80.16868 71 ft 149 kts 66°
2026-04-23 14:21 12.99228 80.17455 268 ft 157 kts 68°
2026-04-23 14:22 12.99603 80.18504 721 ft 167 kts 66°
2026-04-23 14:22 13.00014 80.19602 1275 ft 175 kts 66°
2026-04-23 14:22 13.00398 80.20799 1926 ft 179 kts 69°
2026-04-23 14:22 13.00723 80.22012 2571 ft 183 kts 71°
2026-04-23 14:23 13.01036 80.23176 3170 ft 182 kts 71°
2026-04-23 14:23 13.01873 80.25072 3966 ft 195 kts 41°
2026-04-23 14:23 13.03063 80.25662 4353 ft 213 kts
2026-04-23 14:24 13.04570 80.25442 4840 ft 232 kts 336°
2026-04-23 14:24 13.05833 80.24356 5310 ft 253 kts 306°
2026-04-23 14:24 13.06490 80.22694 5768 ft 272 kts 284°
2026-04-23 14:24 13.06813 80.20832 6267 ft 286 kts 279°